Weather History for KCGS - January, 2012

Change the Weather History Date:

Thursday, January 12, 2012

  Actual Average Record
Temperature  
Mean Temperature 50 °F -  
Max Temperature 59 °F 39 °F 68 °F (1975)
Min Temperature 42 °F 22 °F 4 °F (1968)
Degree Days  
Heating Degree Days 14    
Moisture  
Dew Point 44 °F    
Average Humidity 77    
Maximum Humidity 100    
Minimum Humidity 59    
Precipitation  
Precipitation 0.00 in - - ()
Sea Level Pressure  
Sea Level Pressure 29.47 in    
Wind  
Wind Speed 4 mph (SW)    
Max Wind Speed 9 mph    
Max Gust Speed 17 mph    
Visibility 9 miles    
Events      
Averages and records for this station are not official NWS values.
T = Trace of Precipitation, MM = Missing Value Source: NWS Daily Summary

Daily Weather History Graph

Daily Weather History Graph

Search for Another Location

Airport or City:

Trip Planner

Search our weather history database for the weather conditions in past years. The results will help you decide how hot, cold, wet, or windy it might be!

Date:

Astronomy

Jan. 12, 2012 Rise Set
Actual Time 7:26 AM EST 5:05 PM EST
Civil Twilight 6:56 AM EST 5:35 PM EST
Nautical Twilight 6:23 AM EST 6:08 PM EST
Astronomical Twilight 5:51 AM EST 6:40 PM EST
Moon 9:06 PM EST (1/12) 9:10 AM EST (1/12)
Length of Visible Light 10h 38m
Length of Day
9h 39m
Waning Gibbous, 87% of the Moon is Illuminated
Jan 12
Waning Gibbous
Jan 16
Last Quarter
Jan 23
New
Jan 30
First Quarter
Feb 7
Full

Hourly Weather History & Observations

Time (EST) Temp. Windchill Dew Point Humidity Pressure Visibility Wind Dir Wind Speed Gust Speed Precip Events Conditions
12:05 AM 46.4 °F 42.4 °F 44.6 °F 93% 29.53 in 3.0 mi ENE 8.1 mph - N/A   Overcast
12:25 AM 46.4 °F 44.3 °F 44.6 °F 93% 29.51 in 10.0 mi NE 4.6 mph - N/A   Overcast
1:45 AM 46.4 °F 45.2 °F 44.6 °F 93% 29.47 in 7.0 mi NE 3.5 mph - N/A   Overcast
2:00 AM 46.4 °F 44.3 °F 44.6 °F 93% 29.47 in 7.0 mi North 4.6 mph - N/A   Overcast
2:20 AM 46.4 °F - 44.6 °F 93% 29.47 in 7.0 mi Calm Calm - N/A   Overcast
2:40 AM 46.4 °F 45.2 °F 44.6 °F 93% 29.45 in 7.0 mi North 3.5 mph - N/A   Overcast
3:20 AM 46.4 °F 45.2 °F 46.4 °F 100% 29.42 in 4.0 mi North 3.5 mph - N/A   Overcast
3:40 AM 46.4 °F 44.3 °F 46.4 °F 100% 29.41 in 2.5 mi North 4.6 mph - N/A   Overcast
4:00 AM 48.2 °F - 46.4 °F 93% 29.42 in 2.5 mi Calm Calm - N/A   Overcast
4:20 AM 48.2 °F - 46.4 °F 93% 29.41 in 2.0 mi Calm Calm - N/A   Overcast
4:35 AM 48.2 °F - 46.4 °F 93% 29.41 in 2.5 mi Calm Calm - N/A   Overcast
4:55 AM 48.2 °F - 46.4 °F 93% 29.41 in 10.0 mi Calm Calm - N/A   Overcast
5:15 AM 48.2 °F - 46.4 °F 93% 29.40 in 10.0 mi Calm Calm - N/A   Overcast
5:35 AM 46.4 °F 42.4 °F 46.4 °F 100% 29.42 in 10.0 mi West 8.1 mph - N/A   Overcast
5:55 AM 46.4 °F 42.4 °F 44.6 °F 93% 29.41 in 10.0 mi WNW 8.1 mph - N/A   Overcast
6:15 AM 44.6 °F 40.2 °F 42.8 °F 93% 29.45 in 10.0 mi WNW 8.1 mph - N/A   Overcast
6:35 AM 44.6 °F 39.7 °F 42.8 °F 93% 29.46 in 7.0 mi West 9.2 mph 16.1 mph N/A   Overcast
6:50 AM 44.6 °F 39.7 °F 42.8 °F 93% 29.46 in 10.0 mi WNW 9.2 mph - N/A   Overcast
7:10 AM 44.6 °F 40.2 °F 41.0 °F 87% 29.46 in 10.0 mi West 8.1 mph - N/A   Overcast
7:30 AM 44.6 °F 42.2 °F 41.0 °F 87% 29.48 in 10.0 mi WSW 4.6 mph - N/A   Overcast
7:50 AM 42.8 °F 39.3 °F 41.0 °F 93% 29.50 in 10.0 mi West 5.8 mph - N/A   Overcast
8:50 AM 44.6 °F - 41.0 °F 87% 29.51 in 10.0 mi Calm Calm - N/A   Mostly Cloudy
9:05 AM 44.6 °F 42.2 °F 41.0 °F 87% 29.52 in 10.0 mi WNW 4.6 mph - N/A   Mostly Cloudy
9:25 AM 44.6 °F 42.2 °F 41.0 °F 87% 29.53 in 10.0 mi West 4.6 mph - N/A   Mostly Cloudy
9:45 AM 46.4 °F 44.3 °F 41.0 °F 81% 29.53 in 10.0 mi WNW 4.6 mph - N/A   Mostly Cloudy
10:45 AM 48.2 °F - 41.0 °F 76% 29.54 in 10.0 mi SSW 4.6 mph - N/A   Mostly Cloudy
11:05 AM 50.0 °F - 41.0 °F 71% 29.53 in 10.0 mi South 5.8 mph - N/A   Mostly Cloudy
11:15 AM 50.0 °F - 41.0 °F 71% 29.52 in 10.0 mi SSW 4.6 mph - N/A   Mostly Cloudy
11:40 AM 51.8 °F - 41.0 °F 67% 29.52 in 10.0 mi West 4.6 mph - N/A   Scattered Clouds
12:00 PM 51.8 °F - 42.8 °F 71% 29.51 in 10.0 mi WSW 4.6 mph - N/A   Clear
12:20 PM 51.8 °F - 42.8 °F 71% 29.49 in 10.0 mi Calm Calm - N/A   Clear
12:40 PM 51.8 °F - 42.8 °F 71% 29.49 in 10.0 mi South 4.6 mph - N/A   Clear
1:00 PM 53.6 °F - 42.8 °F 67% 29.50 in 10.0 mi SW 4.6 mph - N/A   Clear
1:20 PM 53.6 °F - 42.8 °F 67% 29.49 in 10.0 mi South 3.5 mph - N/A   Clear
1:35 PM 53.6 °F - 42.8 °F 67% 29.50 in 10.0 mi SSE 3.5 mph - N/A   Clear
1:55 PM 55.4 °F - 44.6 °F 67% 29.49 in 10.0 mi South 4.6 mph - N/A   Scattered Clouds
2:15 PM 55.4 °F - 44.6 °F 67% 29.49 in 10.0 mi South 5.8 mph - N/A   Clear
2:35 PM 57.2 °F - 44.6 °F 63% 29.49 in 10.0 mi South 4.6 mph - N/A   Scattered Clouds
2:55 PM 57.2 °F - 44.6 °F 63% 29.48 in 10.0 mi Calm Calm - N/A   Clear
3:15 PM 59.0 °F - 44.6 °F 59% 29.48 in 10.0 mi South 3.5 mph - N/A   Clear
3:35 PM 59.0 °F - 44.6 °F 59% 29.48 in 10.0 mi South 4.6 mph - N/A   Clear
3:50 PM 59.0 °F - 44.6 °F 59% 29.48 in 10.0 mi Calm Calm - N/A   Clear
4:30 PM 59.0 °F - 44.6 °F 59% 29.48 in 10.0 mi Calm Calm - N/A   Clear
4:50 PM 59.0 °F - 44.6 °F 59% 29.49 in 10.0 mi Calm Calm - N/A   Clear
5:10 PM 57.2 °F - 44.6 °F 63% 29.49 in 10.0 mi Calm Calm - N/A   Clear
5:30 PM 53.6 °F - 44.6 °F 72% 29.50 in 10.0 mi Calm Calm - N/A   Scattered Clouds
5:50 PM 50.0 °F - 44.6 °F 82% 29.49 in 10.0 mi Calm Calm - N/A   Mostly Cloudy
6:45 PM 55.4 °F - 44.6 °F 67% 29.48 in 10.0 mi Calm Calm - N/A   Overcast
7:05 PM 55.4 °F - 44.6 °F 67% 29.48 in 10.0 mi Calm Calm - N/A   Overcast
7:25 PM 55.4 °F - 44.6 °F 67% 29.48 in 10.0 mi SE 3.5 mph - N/A   Overcast
7:45 PM 53.6 °F - 44.6 °F 72% 29.48 in 10.0 mi Calm Calm - N/A   Overcast
8:05 PM 53.6 °F - 44.6 °F 72% 29.48 in 10.0 mi Calm Calm - N/A   Overcast
8:25 PM 51.8 °F - 44.6 °F 76% 29.46 in 10.0 mi Calm Calm - N/A   Mostly Cloudy
8:40 PM 53.6 °F - 44.6 °F 72% 29.46 in 10.0 mi South 3.5 mph - N/A   Mostly Cloudy
9:00 PM 55.4 °F - 44.6 °F 67% 29.45 in 10.0 mi South 6.9 mph - N/A   Scattered Clouds
9:20 PM 55.4 °F - 44.6 °F 67% 29.45 in 10.0 mi South 3.5 mph - N/A   Scattered Clouds
9:40 PM 53.6 °F - 44.6 °F 72% 29.45 in 10.0 mi SSW 4.6 mph - N/A   Scattered Clouds
10:00 PM 55.4 °F - 44.6 °F 67% 29.45 in 10.0 mi SSW 8.1 mph - N/A   Scattered Clouds
10:20 PM 55.4 °F - 44.6 °F 67% 29.44 in 10.0 mi South 8.1 mph - N/A   Scattered Clouds
10:40 PM 53.6 °F - 44.6 °F 72% 29.44 in 10.0 mi South 6.9 mph 17.3 mph N/A   Scattered Clouds
10:55 PM 53.6 °F - 44.6 °F 72% 29.43 in 10.0 mi South 8.1 mph 16.1 mph N/A   Mostly Cloudy
11:15 PM 53.6 °F - 42.8 °F 67% 29.42 in 10.0 mi South 8.1 mph 16.1 mph N/A   Overcast
11:35 PM 53.6 °F - 42.8 °F 67% 29.41 in 10.0 mi South 8.1 mph - N/A   Overcast
11:55 PM 53.6 °F - 42.8 °F 67% 29.39 in 10.0 mi South 8.1 mph - N/A   Overcast